Regional Weather Roundup
Issued by NWS Grand Forks, ND

Home | Current Version | Previous Version | Text Only | Print | Product List | Glossary Off
Versions: 1 2 3 4 5 6 7 8 9 10 11 12 13 14 15 16 17 18 19 20 21 22 23 24 25 26 27 28 29 30 31 32 33 34 35 36 37 38 39 40 41 42 43 44 45 46 47 48 49 50

032
ASUS43 KFGF 181710
RWRFGF
PRAIRIE TO PINES  WEATHER ROUNDUP
NATIONAL WEATHER SERVICE EASTERN NORTH DAKOTA/GRAND FORKS ND
1200 PM CDT WED OCT 18 2017

 **SATELLITE DATA USED TO AUGMENT SKY COVER AT AUTOMATED STATIONS**
 *****  WEATHER ACROSS EASTERN NORTH DAKOTA  *****

CITY           SKY/WX    TMP DP  RH WIND       PRES   REMARKS
GRAND FORKS    FAIR      59  23  25 W23G33    29.78R
GRAND FRKS AFB FAIR      58  20  22 W28G36    29.78R
DEVILS LAKE    FAIR      53  21  28 W30G38    29.80S
FARGO          FAIR      56  26  31 W17G26    29.87R
WAHPETON ARPT  NOT AVBL
$$

 ***** WEATHER ACROSS CENTRAL AND WESTERN NORTH DAKOTA  *****

CITY           SKY/WX    TMP DP  RH WIND       PRES   REMARKS
BISMARCK       FAIR      55  22  27 NW13G26   29.99R
MINOT          FAIR      53  17  24 W31G40    29.87R
JAMESTOWN      FAIR      57  19  22 NW25G36   29.89R
MINOT AFB      FAIR      52  18  25 W26G44    29.85R
GARRISON         N/A     52  16  24 NW25G36   29.93R
WILLISTON      FAIR      51  20  29 NW22G36   29.97R
DICKINSON      FAIR      52  23  32 W17       30.00R
HETTINGER      FAIR      52  21  29 NW14      30.06R
$$

 *****  OTHER AIRPORT OBSERVATIONS IN OUR AREA  *****

CITY           SKY/WX    TMP DP  RH WIND       PRES   REMARKS
WALHALLA       FAIR     N/A N/A N/A W15G33    29.68R
GRAFTON AIRPOR FAIR      57  25  28 W26G35    29.77R
VALLEY CITY AR FAIR      57  21  24 NW24G33   29.90R
CANDO          FAIR      54  16  22 W31G44    29.79R
CAVALIER APRT  FAIR      57  19  23 W24G38    29.70R
GWINNER        SUNNY     55  27  33 NW12      29.92R
SHEYENNE NWR     N/A     56  22  27 NW10      29.95S
ROLLA          FAIR      52  14  22 W31G46    29.74R
 ***** THE ABOVE OBSERVATIONS ARE NON NWS ARE NOT QUALITY
       CONTROLLED AND MAY MIS-REPORT RAIN FOR SNOW...
$$

  *****  WEATHER ACROSS NORTHERN MINNESOTA  *****

CITY           SKY/WX    TMP DP  RH WIND       PRES   REMARKS
FLAG ISLAND    FAIR      54  28  37 W23G30    29.57R
WARROAD        FAIR      54  34  47 W22G29    29.64R
ROSEAU         FAIR      55  30  38 W26G36    29.65S
HALLOCK        FAIR      57  19  23 W30G37    29.70R
THF RVR FALLS  NOT AVBL
BAUDETTE       FAIR      54  29  38 W17G32    29.63R
WASKISH        CLOUDY    57  34  41 W16G23    29.69R
CROOKSTON      FAIR      57  27  30 W25G31    29.80R
STEPHEN NDAWN    N/A     57  27  30 W18         N/A
GREENBUSH NDAW   N/A     55  27  33 W26         N/A
$$
  *****  WEATHER ACROSS CENTRAL AND WEST MINNESOTA  *****

CITY           SKY/WX    TMP DP  RH WIND       PRES   REMARKS
FOSSTON        FAIR      54  25  32 W17       29.80R
BEMIDJI        FAIR      58  23  25 W30G37    29.76R
PARK RAPIDS    FAIR      62  33  33 NW23G35   29.79R
ELBOW LAKE     FAIR      59  34  38 W28G36    29.87R
WADENA         FAIR      61  34  36 NW21G26   29.81R
DETROIT LAKES  FAIR      57  28  33 NW26G32   29.85R
MOORHEAD       FAIR      55  27  33 NW17      29.88R
FERGUS FALLS   FAIR      61  32  33 NW25G32   29.87R
MORRIS MN      FAIR      64  36  34 N24G31    29.86R
STAPLES        FAIR      64  30  27 NW17G25   29.79R
$$
  *****  WEATHER ELSEWHERE ACROSS MINNESOTA  *****

CITY           SKY/WX    TMP DP  RH WIND       PRES   REMARKS
DULUTH         FAIR      61  45  55 SW18      29.70F
INTRNTL FALLS  FAIR      64  30  27 W22G32    29.61R
ELY            FAIR      61  39  44 SW13G18   29.64S
CLOQUET        FAIR      61  43  51 SW9       29.72F
WHEATON        FAIR      63  25  23 NW23G30   29.90R
BRAINERD       FAIR      62  39  42 W15       29.77R
HIBBING        FAIR      61  41  47 SW9       29.68S
ALEXANDRIA     FAIR      62  34  35 NW26G32   29.85R
SAINT CLOUD    FAIR      62  46  55 W9        29.80S
MINNEAPOLIS    PTSUNNY   64  49  57 SW10      29.83F
$$

  *****  WEATHER ACROSS SOUTH DAKOTA  *****

CITY           SKY/WX    TMP DP  RH WIND       PRES   REMARKS
SIOUX FALLS    PTSUNNY   66  42  41 N20G29    29.91R
BROOKINGS      FAIR      64  34  32 N16G24    29.92R
WATERTOWN      FAIR      62  31  31 N23G30    29.92R
HURON          FAIR      64  36  35 N17G25    29.94R
SISSETON         N/A     64  32  30 NW26G33   29.89R
ABERDEEN       FAIR      60  21  22 NW23G31   29.96R
MITCHELL       FAIR      67  31  26 N25       29.95R
PIERRE         FAIR      62  26  25 N22       30.02R
MOBRIDGE       FAIR      56  24  29 N15G24    29.98R
RAPID CITY     FAIR      58  23  26 N13       30.11S
$$

  *****  SOME WEATHER IN NEARBY STATES *****

CITY           SKY/WX    TMP DP  RH WIND       PRES   REMARKS
GLASGOW MT     FAIR      51  27  39 W9        29.98F
GREAT FALLS MT FAIR      54  31  41 SW23G32   29.94F
CHEYENNE WY    FAIR      66   9  10 W20G29    30.19R
SCOTTSBLUFF NE FAIR      70  19  14 NE14G20   30.11R
OMAHA NE       FAIR      66  48  52 S14       29.92F
DES MOINES IA  PTSUNNY   69  46  43 S14       29.96F
DAVENPORT IA   FAIR      67  46  47 S14G20    30.08F
CHICAGO IL     FAIR      66  43  43 SW12      30.12F
EAU CLAIRE WI  FAIR      65  48  54 S12       29.83F
LA CROSSE WI   FAIR      65  48  54 S15       29.90F
$$

  *****  SOME NATIONAL WEATHER *****

CITY           SKY/WX    TMP DP  RH WIND       PRES   REMARKS
LA GUARDIA NY  FAIR      68  44  42 NW3       30.30F
RALEIGH NC     FAIR      64  33  31 N7        30.39F
ATLANTA GA     FAIR      65  42  43 E13G21    30.34F
NEW ORLEANS LA FAIR      78  65  63 E14       30.19F
OKLAHOMA CITY  FAIR      71  47  42 S14       30.11R
ALBUQUERQUE NM CLOUDY    60  22  23 CALM      30.25F
SALT LAKE CITY FAIR      58  28  32 E3        30.21S
LOS ANGELES CA FAIR      77  57  50 E7        29.95S
BOISE ID       FAIR      59  32  36 SE14      30.12F
SEATTLE WA     LGT RAIN  49  44  83 SE13      29.84F
$$

*** WEATHER ACROSS MANITOBA...SASKATCHEWAN AND ONTARIO ***
                ***ONTARIO***

CITY           SKY/WX    TMP DP  RH WIND       PRES   REMARKS
GERALDTON      PTSUNNY   68  45  42 S17G29    29.52F
THUNDER BAY    PTSUNNY   66  46  48 SW16G25   29.56F
SIOUX LOOKOUT  CLOUDY    63  36  36 W14G30    29.41S
TORONTO        MOSUNNY   68  43  40 SW15G23   30.20F
BIG TROUT LK   MOSUNNY   57  41  54 SW13G20   29.06F
PICKLE LAKE    PTSUNNY   64  37  36 SW22G35   29.25F
DRYDEN         PTSUNNY   61  34  36 SW28G41   29.44S
KENORA         MOSUNNY   52  28  40 W24G35    29.51R
$$
                *** MANITOBA***

CITY           SKY/WX    TMP DP  RH WIND       PRES   REMARKS
BRANDON        SUNNY     52  18  25 W33G44    29.62R
DAUPHIN        SUNNY     50  21  32 W44G55    29.45R
ISLAND LAKE    NOT AVBL
PILOT MOUND      N/A     50  16  25 W18G32      N/A
THE PAS        NOT AVBL
THOMPSON       LGT RAIN  37  36  93 N9        28.71R
WINNIPEG       MOSUNNY   55  23  28 W30G45    29.53F
LYNN LAKE      LGT RAIN  34  34 100 N9        28.93R FOG
CHURCHILL      SNOW      32  32 100 E38G53    29.17F VSB 3/8 WCI  16
GILLAM         PTSUNNY   37  34  87 E9G25     28.80F
$$
                ***SASKATCHEWAN***

CITY           SKY/WX    TMP DP  RH WIND       PRES   REMARKS
ESTEVAN        MOSUNNY   48  19  32 W30G41    29.84R
KINDERSLEY     MOSUNNY   45  19  36 NW17G29   29.82R
LLOYDMINSTER   MOSUNNY   41  27  56 W20G28    29.73R
PRINCE ALBERT  PTSUNNY   41  27  56 NW28G45   29.52R
REGINA         MOSUNNY   46  19  34 W35G46    29.77R
YORKTON        SUNNY     48  19  32 W37G46    29.54R
N. BATTLEFORD  SUNNY     43  21  42 W31G40    29.72R
LA RONGE       LGT RAIN  36  32  87 W22G41    29.30R
SASKATOON      SUNNY     45  19  36 W35G44    29.69R
SWIFT CURRENT  SUNNY     43  19  39 W20G26    29.87R
$$
NOTE: THESE ARE AUTOMATED STATIONS WITH LIMITED QUALITY CONTROL
      "FAIR" INDICATES FEW OR NO CLOUDS BELOW 12,000 FEET WITH NO
      SIGNIFICANT WEATHER AND/OR OBSTRUCTIONS TO VISIBILITY.
      SKY/WX - SKY CONDITION AND SIGNIFICANT WEATHER.
      TMP - AIR TEMPERATURE.    DP   - DEWPOINT TEMPERATURE.
      RH  - RELATIVE HUMIDITY.  PRES - PRESSURE.
      HX  - HEAT INDEX.         WCI  - WIND CHILL INDEX.
$




USA.gov is the U.S. government's official web portal to all federal, state and local government web resources and services.